Regional Weather Roundup
Issued by NWS

Home | Current Version | Previous Version | Text Only | Print | Product List | Glossary Off
Versions: 1 2 3 4 5 6 7 8 9 10 11 12 13 14 15 16 17 18 19 20 21 22 23 24 25 26 27 28 29 30 31 32 33 34 35 36 37 38 39 40 41 42 43 44 45 46 47 48 49 50

000
ASUS45 KTFX 312319
RWRMT
MONTANA HOURLY WEATHER ROUNDUP
NATIONAL WEATHER SERVICE GREAT FALLS MT
519 PM MDT THU JUL 31 2014

NOTE: "FAIR" INDICATES FEW OR NO CLOUDS BELOW 12000 FEET WITH NO
SIGNIFICANT WEATHER AND/OR OBSTRUCTIONS TO VISIBILITY.

* THESE STATIONS ARE NOT UNDER NWS QUALITY CONTROL. THEY DO NOT
   REPORT WEATHER SUCH AS PRECIPITATION OR FOG.

MTZ001>007-043-010000-
WEST OF THE DIVIDE
CITY           SKY/WX    TMP DP  RH WIND       PRES   REMARKS
KALISPELL      PTCLDY    91  45  20 E5        30.04F
MISSOULA       PTCLDY    93  36  13 NW6       30.05F
BUTTE          MOCLDY    81  39  22 SE12      30.25F
MULLAN PASS    FAIR      81  37  21 VRB3      30.29F
* ESSEX        N/A      N/A N/A N/A N/A        N/A
* LINCOLN      N/A       89  38  17 NE8G15     N/A
* LOOKOUT PASS N/A       85  38  19 N3G13      N/A
* POLSON       N/A       92  42  18 SE3G8      N/A
* RONAN APT    CLEAR     93  43  18 N/A        N/A
* SEELEY LAKE  N/A       90  38  16 W8G16      N/A
* THOMP F APT  CLEAR     66  53  63 E5G12      N/A
$$

MTZ008-052>055-010000-
SOUTHWEST MONTANA
CITY           SKY/WX    TMP DP  RH WIND       PRES   REMARKS
BOZEMAN        MOCLDY    86  37  17 NW13      30.15F
DILLON         MOCLDY    79  43  28 N14       30.21S
W YELLOWSTONE  CLOUDY    73  34  24 SW9G22    30.31F
* THREE FORKS  CLOUDY    88  45  22 N/A        N/A
* BOULDER HILL N/A       76  42  30 NW2        N/A
* MONIDA PASS  N/A       73  41  32 S6G12      N/A
* RAYNOLDS PAS N/A       79  56  45 SE9G15     N/A
* WHITEHALL    N/A       86  38  18 SW4G14     N/A
* WISE RIVER   N/A       83  40  22 NW4G10     N/A
$$

MTZ009>010-012-014-046-048-049-054-010000-
EAST SLOPES AND CENTRAL MONTANA
CITY           SKY/WX    TMP DP  RH WIND       PRES   REMARKS
CUT BANK       MOCLDY    88  45  22 W12       30.13F
GREAT FALLS    LGT RAIN  79  43  28 NW10G30   30.14R
HELENA         MOCLDY    91  34  13 N15G25    30.11F
MALMSTROM AFB  MOCLDY    84  37  19 NW15G29   30.12R
* CONRAD       CLOUDY    82  45  27 W10G17     N/A
* DEARBORN     N/A       87  37  17 W2G10      N/A
* EAST GLACIER N/A       81  42  25 W4         N/A
* MONARCH      N/A       85  38  19 NW10G16    N/A
* PENDROY      N/A       84  47  28 N7         N/A
* ROGERS PASS  N/A       68  48  49 N1         N/A
* SAINT MARY   N/A       78  53  42 NE4G11     N/A
* SWEET GRASS  N/A       87  48  26 NE11G17    N/A
$$

MTZ011-013-016-021-035-040-045-047-050-051-010000-
NORTH CENTRAL MONTANA
CITY           SKY/WX    TMP DP  RH WIND       PRES   REMARKS
HAVRE          MOCLDY    97  41  14 NW15      29.99S
LEWISTOWN      PTCLDY    91  37  15 VRB3      30.11F
* FORT BENTON  MOCLDY    93  37  14 NW9G16    30.02F
* CHESTER      N/A       90  39  17 N7G13      N/A
* DENTON       N/A       93  47  21 NW4G11     N/A
* GEYSER       N/A       91  44  20 N13        N/A
* JUDITH GAP   N/A       85  46  26 SW7        N/A
* LOMA         N/A       94  38  14 N18G24     N/A
$$

MTZ017>020-022>027-061-062-010000-
NORTHEAST MONTANA
CITY           SKY/WX    TMP DP  RH WIND       PRES   REMARKS
GLASGOW        MOCLDY    95  41  15 E15       29.95S
GLENDIVE       PTCLDY    93  41  16 N5        30.00F
JORDAN         CLOUDY    93  34  12 W13       29.98F
SIDNEY         PTCLDY    93  48  21 SE5       29.97F
WOLF POINT     PTCLDY    97  36  12 W3        29.94F
* BEAVER HILL  N/A       90  40  17 NW8G13     N/A
* CIRCLE       N/A       98  46  17 VRB3G9     N/A
* LINDSAY DVD  N/A       92  39  16 SW15G20    N/A
* NAVAJO       N/A       90  49  24 SE2G7      N/A
$$

MTZ028>042-056>058-010000-
SOUTHCENTRAL AND SOUTHEAST MONTANA
CITY           SKY/WX    TMP DP  RH WIND       PRES   REMARKS
BAKER          PTCLDY    93  36  13 VRB5      30.06F
BILLINGS       PTCLDY    90  43  19 W12       30.07F
LIVINGSTON     MOCLDY    84  39  20 E13       30.14S
MILES CITY     CLEAR     97  30   9 S10       30.00F
* LAUREL APT   PTCLDY    88  45  22 N/A        N/A
* ROUNDUP APT  MOCLDY    90  37  15 N15G20     N/A
* ALZADA       N/A       85  43  23 SE6        N/A
* HYSHAM       N/A       94  46  19 SE2        N/A
* LAME DEER    N/A       84  38  19 NW4G11     N/A
* REED POINT   N/A       84  43  24 VRB12G20    N/A
* ROSCOE HILL  N/A       87  40  19 SE4G9      N/A
$$

REGIONAL REPORTS...DAKOTAS
CITY           SKY/WX    TMP DP  RH WIND       PRES   REMARKS
WILLISTON      CLEAR     90  54  29 E10       30.00F
DICKINSON      CLEAR     86  54  33 SE10      30.04F
CROSBY         CLEAR     81  63  54 E9        30.03F HI  82
TIOGA          CLEAR     81  59  47 SE9       30.07F HI  81
WATFORD CITY   CLEAR     86  55  35 E10G17    29.99F
BISMARCK       CLEAR     86  48  27 E5        30.05F
GRAND FORKS    PTCLDY    82  61  49 NW5       29.99F HI  83
FARGO          CLEAR     82  57  43 N5        30.00F HI  82
BUFFALO SD     MOCLDY    82  52  35 E3        30.04F
RAPID CITY     PTCLDY    88  46  23 N/A       30.11F
$$

REGIONAL REPORTS...WYOMING/IDAHO/WASHINGTON
CITY           SKY/WX    TMP DP  RH WIND       PRES   REMARKS
GILLETTE       PTCLDY    86  37  17 VRB6      30.15F
SHERIDAN       PTCLDY    90  41  18 S10       30.10F
CODY           MOCLDY    84  36  18 N6        30.18S
YELLOWSTONE LA CLOUDY    64  43  47 CALM      30.42F
SALMON         PTCLDY    88  48  25 W6        30.03F
MULLAN PASS    FAIR      81  37  21 VRB3      30.29S
SAND POINT     CLEAR     91  50  25 SE9       29.99F
SPOKANE        PTCLDY    99  27   8 W16       30.01F
$$

REGIONAL REPORTS...ALBERTA
CITY           SKY/WX    TMP DP  RH WIND       PRES   REMARKS
CALGARY        CLOUDY    75  63  66 NE7       30.14R
LETHBRIDGE     MOCLDY    81  59  47 SW3       30.09F HI  81
MEDICINE HAT   PTCLDY    91  46  21 NE8       30.02F
EDMONTON       FAIR      81  61  51 E9        30.09F HI  82
WATERTON GATE  N/A       68  63  84 SW7        N/A
CARDSTON       N/A       77  63  62 NW6        N/A
MILK RIVER     N/A       86  50  29 N12        N/A
$$

REGIONAL REPORTS...SASKATCHEWAN
CITY           SKY/WX    TMP DP  RH WIND       PRES   REMARKS
SWIFT CURRENT  CLEAR     88  54  31 NE13G18   30.00S
MOOSE JAW      FAIR      84  63  49 E7        30.01F HI  85
REGINA         FAIR      82  61  49 SE12      30.03F HI  83
VAL MARIE      N/A       86  54  33 N6         N/A
ASSINIBOIA     N/A       86  55  35 NE10       N/A
CORONACH       N/A       90  45  21 E5         N/A

$$




USA.gov is the U.S. government's official web portal to all federal, state and local government web resources and services.